Weather History for Durant, OK

Change the Weather History Date:

Thursday, October 4, 2012

  Actual Average (KADM) Record (KADM)
Temperature  
Mean Temperature 72 °F -  
Max Temperature 86 °F 76 °F 93 °F (2006)
Min Temperature 59 °F 56 °F 35 °F (2010)
Cooling Degree Days 8    
Growing Degree Days 22 (Base 50)    
Moisture  
Dew Point 60 °F    
Average Humidity 68    
Maximum Humidity 94    
Minimum Humidity 45    
Precipitation  
Precipitation 0.00 in - - ()
Sea Level Pressure  
Sea Level Pressure 30.09 in    
Wind  
Wind Speed 7 mph (SSE)    
Max Wind Speed 16 mph    
Max Gust Speed 23 mph    
Visibility 10 miles    
Events      
Averages and records for this station are not official NWS values.
T = Trace of Precipitation, MM = Missing Value Source: NWS Daily Summary

Daily Weather History Graph

Daily Weather History Graph

Search for Another Location

Airport:

Trip Planner

Search our weather history database for the weather conditions in past years. The results will help you decide how hot, cold, wet, or windy it might be!

Date:

Astronomy

Oct. 04, 2012 Rise Set
Actual Time 7:22 AM CDT 7:05 PM CDT
Civil Twilight 6:57 AM CDT 7:30 PM CDT
Nautical Twilight 6:28 AM CDT 7:58 PM CDT
Astronomical Twilight 5:59 AM CDT 8:27 PM CDT
Moon 9:54 PM CDT (10/4) 11:28 AM CDT (10/4)
Length of Visible Light 12h 32m
Length of Day
11h 42m
Waning Gibbous, 82% of the Moon is Illuminated
Oct 4
Waning Gibbous
Oct 8
Last Quarter
Oct 15
New
Oct 21
First Quarter
Oct 29
Full

Hourly Weather History & Observations

Time (CDT) Temp. Heat Index Dew Point Humidity Pressure Visibility Wind Dir Wind Speed Gust Speed Precip Events Conditions
12:15 AM 62.6 °F - 55.4 °F 77% 30.05 in 10.0 mi SSE 4.6 mph - N/A   Clear
12:35 AM 62.6 °F - 53.6 °F 72% 30.05 in 10.0 mi SSE 4.6 mph - N/A   Clear
12:55 AM 60.8 °F - 53.6 °F 77% 30.05 in 10.0 mi SE 4.6 mph - N/A   Clear
1:15 AM 60.8 °F - 55.4 °F 82% 30.05 in 10.0 mi SSE 5.8 mph - N/A   Clear
1:35 AM 60.8 °F - 53.6 °F 77% 30.05 in 10.0 mi SE 4.6 mph - N/A   Clear
2:15 AM 60.8 °F - 55.4 °F 82% 30.05 in 10.0 mi SE 4.6 mph - N/A   Clear
2:35 AM 60.8 °F - 55.4 °F 82% 30.05 in 10.0 mi SE 4.6 mph - N/A   Clear
2:55 AM 60.8 °F - 55.4 °F 82% 30.05 in 10.0 mi SSE 5.8 mph - N/A   Clear
3:15 AM 60.8 °F - 55.4 °F 82% 30.05 in 10.0 mi SSE 5.8 mph - N/A   Clear
3:35 AM 60.8 °F - 55.4 °F 82% 30.05 in 10.0 mi SSE 5.8 mph - N/A   Clear
3:55 AM 60.8 °F - 55.4 °F 82% 30.04 in 10.0 mi SSE 6.9 mph - N/A   Clear
4:15 AM 60.8 °F - 55.4 °F 82% 30.05 in 10.0 mi SSE 5.8 mph - N/A   Clear
4:35 AM 59.0 °F - 55.4 °F 88% 30.05 in 10.0 mi South 4.6 mph - N/A   Clear
4:55 AM 59.0 °F - 55.4 °F 88% 30.06 in 10.0 mi SSE 5.8 mph - N/A   Clear
5:15 AM 59.0 °F - 55.4 °F 88% 30.06 in 10.0 mi SSE 5.8 mph - N/A   Clear
5:35 AM 59.0 °F - 55.4 °F 88% 30.07 in 10.0 mi SSE 4.6 mph - N/A   Clear
5:55 AM 59.0 °F - 55.4 °F 88% 30.08 in 10.0 mi SSE 4.6 mph - N/A   Clear
6:15 AM 59.0 °F - 55.4 °F 88% 30.09 in 10.0 mi SE 4.6 mph - N/A   Clear
6:35 AM 59.0 °F - 55.4 °F 88% 30.09 in 10.0 mi SE 5.8 mph - N/A   Clear
6:55 AM 59.0 °F - 55.4 °F 88% 30.09 in 10.0 mi SE 5.8 mph - N/A   Clear
7:15 AM 59.0 °F - 55.4 °F 88% 30.10 in 10.0 mi SE 4.6 mph - N/A   Clear
7:35 AM 59.0 °F - 55.4 °F 88% 30.11 in 10.0 mi ESE 5.8 mph - N/A   Clear
7:55 AM 59.0 °F - 55.4 °F 88% 30.12 in 10.0 mi SE 5.8 mph - N/A   Clear
8:15 AM 60.8 °F - 59.0 °F 94% 30.12 in 10.0 mi SE 6.9 mph - N/A   Clear
8:35 AM 62.6 °F - 60.8 °F 94% 30.13 in 10.0 mi SE 6.9 mph - N/A   Mostly Cloudy
8:55 AM 64.4 °F - 60.8 °F 88% 30.13 in 10.0 mi SE 6.9 mph - N/A   Mostly Cloudy
9:15 AM 66.2 °F - 60.8 °F 83% 30.14 in 10.0 mi SE 9.2 mph - N/A   Mostly Cloudy
9:35 AM 68.0 °F - 60.8 °F 78% 30.14 in 10.0 mi SE 8.1 mph - N/A   Scattered Clouds
9:55 AM 69.8 °F - 60.8 °F 73% 30.15 in 10.0 mi SE 8.1 mph - N/A   Clear
10:15 AM 71.6 °F - 60.8 °F 69% 30.16 in 10.0 mi SE 9.2 mph - N/A   Clear
10:35 AM 73.4 °F - 60.8 °F 65% 30.16 in 10.0 mi SE 8.1 mph - N/A   Clear
11:15 AM 77.0 °F - 60.8 °F 57% 30.16 in 10.0 mi SE 12.7 mph - N/A   Clear
11:35 AM 78.8 °F - 62.6 °F 57% 30.15 in 10.0 mi SE 13.8 mph 17.3 mph N/A   Clear
11:55 AM 78.8 °F - 62.6 °F 57% 30.15 in 10.0 mi SE 10.4 mph 16.1 mph N/A   Scattered Clouds
12:15 PM 80.6 °F 81.8 °F 62.6 °F 54% 30.15 in 10.0 mi SSE 11.5 mph 16.1 mph N/A   Mostly Cloudy
12:35 PM 80.6 °F 81.8 °F 62.6 °F 54% 30.14 in 10.0 mi SSE 11.5 mph - N/A   Scattered Clouds
12:55 PM 82.4 °F 83.9 °F 64.4 °F 54% 30.14 in 10.0 mi South 11.5 mph - N/A   Scattered Clouds
1:15 PM 82.4 °F 83.9 °F 64.4 °F 54% 30.13 in 10.0 mi SSE 11.5 mph 19.6 mph N/A   Mostly Cloudy
1:35 PM 82.4 °F 83.9 °F 64.4 °F 54% 30.12 in 10.0 mi SSE 16.1 mph 19.6 mph N/A   Scattered Clouds
1:55 PM 84.2 °F 85.6 °F 64.4 °F 51% 30.10 in 10.0 mi South 12.7 mph 18.4 mph N/A   Scattered Clouds
2:15 PM 86.0 °F 87.3 °F 64.4 °F 48% 30.09 in 10.0 mi South 11.5 mph 23.0 mph N/A   Scattered Clouds
2:35 PM 86.0 °F 87.3 °F 64.4 °F 48% 30.08 in 10.0 mi South 16.1 mph 20.7 mph N/A   Scattered Clouds
2:55 PM 86.0 °F 87.3 °F 64.4 °F 48% 30.08 in 10.0 mi SSE 16.1 mph 23.0 mph N/A   Scattered Clouds
3:15 PM 86.0 °F 87.3 °F 64.4 °F 48% 30.07 in 10.0 mi South 12.7 mph 20.7 mph N/A   Scattered Clouds
3:35 PM 86.0 °F 87.3 °F 64.4 °F 48% 30.07 in 10.0 mi South 13.8 mph 18.4 mph N/A   Mostly Cloudy
3:55 PM 86.0 °F 86.6 °F 62.6 °F 45% 30.07 in 10.0 mi SSW 13.8 mph 18.4 mph N/A   Overcast
4:15 PM 86.0 °F 86.6 °F 62.6 °F 45% 30.07 in 10.0 mi South 11.5 mph - N/A   Mostly Cloudy
4:35 PM 86.0 °F 86.6 °F 62.6 °F 45% 30.07 in 10.0 mi SSW 12.7 mph 18.4 mph N/A   Mostly Cloudy
5:15 PM 82.4 °F 83.4 °F 62.6 °F 51% 30.07 in 10.0 mi South 9.2 mph - N/A   Mostly Cloudy
5:35 PM 82.4 °F 83.4 °F 62.6 °F 51% 30.07 in 10.0 mi South 8.1 mph - N/A   Overcast
5:55 PM 82.4 °F 83.4 °F 62.6 °F 51% 30.07 in 10.0 mi South 6.9 mph - N/A   Overcast
6:15 PM 82.4 °F 83.4 °F 62.6 °F 51% 30.07 in 10.0 mi South 6.9 mph - N/A   Overcast
6:35 PM 80.6 °F 81.8 °F 62.6 °F 54% 30.07 in 10.0 mi SSE 5.8 mph - N/A   Overcast
6:55 PM 80.6 °F 81.8 °F 62.6 °F 54% 30.07 in 10.0 mi SSE 6.9 mph - N/A   Overcast
7:15 PM 80.6 °F 81.8 °F 62.6 °F 54% 30.08 in 10.0 mi SSE 6.9 mph - N/A   Overcast
7:55 PM 78.8 °F - 62.6 °F 57% 30.08 in 10.0 mi SSE 6.9 mph - N/A   Overcast
8:15 PM 78.8 °F - 62.6 °F 57% 30.08 in 10.0 mi SSE 6.9 mph - N/A   Overcast
8:35 PM 78.8 °F - 62.6 °F 57% 30.09 in 10.0 mi SSE 6.9 mph - N/A   Overcast
9:15 PM 77.0 °F - 62.6 °F 61% 30.09 in 10.0 mi SE 4.6 mph - N/A   Overcast
9:35 PM 77.0 °F - 62.6 °F 61% 30.09 in 10.0 mi SSE 3.5 mph - N/A   Overcast
10:15 PM 77.0 °F - 60.8 °F 57% 30.10 in 10.0 mi Calm Calm - N/A   Overcast
10:35 PM 75.2 °F - 62.6 °F 65% 30.10 in 10.0 mi Calm Calm - N/A   Overcast
10:55 PM 75.2 °F - 62.6 °F 65% 30.11 in 10.0 mi NNW 3.5 mph - N/A   Overcast
11:15 PM 73.4 °F - 62.6 °F 69% 30.11 in 10.0 mi NNW 3.5 mph - N/A   Overcast
11:35 PM 73.4 °F - 62.6 °F 69% 30.10 in 10.0 mi Calm Calm - N/A   Overcast
11:55 PM 71.6 °F - 62.6 °F 73% 30.10 in 10.0 mi NNW 4.6 mph - N/A   Overcast